sat.trackr.live / text

‹ back to catalog

SAUDICOMSAT 1

NORAD 28369 · 2004-025D

PAYLOAD ACTIVE UNKNOWN

§ Identity

Operator
Country
SAUD
Launch date
2004-06-29
Launch site
TYMSC
Launch vehicle
Mass (kg)
RCS (m²)
0.05

External: N2YO · Heavens-Above · Gunter

§ Orbital elements

Epoch: 2026-05-24T23:39:59.205024Z

Period
98.94 min
Inclination
98.5775°
Eccentricity
0.0033432
Mean motion
14.55451521 rev/d
Perigee alt
684.2 km
Apogee alt
731.6 km
Semi-major
7,086.0 km
B*
8.0724e-5
RAAN
154.4918°
Arg perigee
94.5172°
Mean anomaly
265.9844°
Rev number
16,075

§ Raw data

SAUDICOMSAT 11 28369U 04025D   26144.98610191  .00000304  00000+0  80724-4 0  99922 28369  98.5775 154.4918 0033432  94.5172 265.9844 14.55451521160756

JSON: /api/v1/satellites/28369 · /tle

For live sub-satellite position, see the globe view (requires WebGL).

§ Visibility from observer

Set your observer location to see the next 7 days of passes ≥ 10°. The values pass through the URL so the page stays shareable.

No JS? Fill the form by hand. The geolocation button needs JavaScript.